Weather History for Eagle, AK

Change the Weather History Date:

Tuesday, November 20, 2012

  Actual Average (PABN) Record (PABN)
Temperature  
Mean Temperature -14 °F -  
Max Temperature -9 °F 10 °F 24 °F (1999)
Min Temperature -20 °F 3 °F -32 °F (2013)
Degree Days  
Heating Degree Days 80    
Moisture  
Dew Point -21 °F    
Average Humidity 69    
Maximum Humidity 74    
Minimum Humidity 65    
Precipitation  
Precipitation 0.00 in - - ()
Sea Level Pressure  
Sea Level Pressure 30.16 in    
Wind  
Wind Speed 0 mph (North)    
Max Wind Speed 4 mph    
Max Gust Speed -    
Visibility 8 miles    
Events Snow    
Averages and records for this station are not official NWS values.
T = Trace of Precipitation, MM = Missing Value Source: NWS Daily Summary

Daily Weather History Graph

Daily Weather History Graph

Search for Another Location

Airport:

Trip Planner

Search our weather history database for the weather conditions in past years. The results will help you decide how hot, cold, wet, or windy it might be!

Date:

Astronomy

Nov. 20, 2012 Rise Set
Actual Time 9:18 AM AKST 3:01 PM AKST
Civil Twilight 8:12 AM AKST 4:07 PM AKST
Nautical Twilight 7:07 AM AKST 5:11 PM AKST
Astronomical Twilight 6:09 AM AKST 6:10 PM AKST
Moon 1:24 PM AKST (11/20) No Moon Set
Length of Visible Light 7h 55m
Length of Day
5h 42m
First Quarter, 53% of the Moon is Illuminated
Nov 20
First Quarter
Nov 28
Full
Dec 6
Last Quarter
Dec 12
New
Dec 19
First Quarter

Hourly Weather History & Observations

Time (AKST) Temp. Windchill Dew Point Humidity Pressure Visibility Wind Dir Wind Speed Gust Speed Precip Events Conditions
12:53 AM -17.0 °F - -24.0 °F 70% 30.21 in 10.0 mi Calm Calm - N/A   Overcast
1:53 AM -18.9 °F - -26.0 °F 70% 30.22 in 10.0 mi Calm Calm - N/A   Partly Cloudy
3:53 AM -18.9 °F - -26.0 °F 70% 30.21 in 10.0 mi Calm Calm - N/A   Overcast
4:53 AM -17.0 °F - -24.0 °F 70% 30.20 in 10.0 mi Calm Calm - N/A   Overcast
5:53 AM -16.1 °F - -23.1 °F 71% 30.19 in 10.0 mi Calm Calm - N/A   Overcast
6:53 AM -15.0 °F - -23.1 °F 67% 30.19 in 10.0 mi Calm Calm - N/A   Overcast
7:53 AM -16.1 °F - -22.0 °F 74% 30.19 in 7.0 mi Calm Calm - N/A   Overcast
8:53 AM -18.9 °F - -27.0 °F 66% 30.19 in 10.0 mi Calm Calm - N/A   Overcast
9:53 AM -20.9 °F - -27.0 °F 73% 30.19 in 10.0 mi Calm Calm - N/A   Scattered Clouds
10:53 AM -20.9 °F - -27.9 °F 70% 30.19 in 10.0 mi Calm Calm - N/A   Partly Cloudy
11:53 AM -16.1 °F - -23.1 °F 71% 30.19 in 10.0 mi Calm Calm - N/A   Overcast
12:53 PM -15.0 °F - -22.0 °F 71% 30.17 in 6.0 mi Calm Calm - 0.00 in   Haze
1:53 PM -13.0 °F - -20.9 °F 68% 30.17 in 6.0 mi Calm Calm - 0.00 in   Haze
2:53 PM -13.0 °F - -20.0 °F 71% 30.16 in 9.0 mi Calm Calm - N/A   Overcast
3:53 PM -11.9 °F - -20.0 °F 67% 30.15 in 10.0 mi Calm Calm - 0.00 in   Overcast
4:53 PM -11.0 °F - -18.9 °F 68% 30.14 in 10.0 mi Calm Calm - N/A   Overcast
5:53 PM -11.0 °F -20.4 °F -18.9 °F 68% 30.13 in 9.0 mi North 3.5 mph - 0.00 in Snow Light Snow
6:53 PM -11.0 °F - -18.9 °F 68% 30.14 in 10.0 mi Calm Calm - N/A   Overcast
7:53 PM -9.9 °F -19.2 °F -18.0 °F 68% 30.13 in 9.0 mi North 3.5 mph - 0.00 in   Overcast
8:53 PM -9.9 °F - -18.0 °F 68% 30.13 in 8.0 mi Calm Calm - 0.00 in Snow Light Snow
9:09 PM -9.4 °F - -18.4 °F 65% 30.03 in 2.0 mi Calm Calm - 0.00 in Snow Light Snow
9:22 PM -9.4 °F - -16.6 °F 71% 30.03 in 4.0 mi Calm Calm - 0.00 in Snow Light Snow
9:53 PM -9.0 °F - -17.0 °F 68% 30.13 in 3.0 mi Calm Calm - 0.00 in Snow Light Snow
10:53 PM -9.0 °F - -17.0 °F 68% 30.13 in 9.0 mi Calm Calm - 0.00 in   Overcast
11:53 PM -9.0 °F - -17.0 °F 68% 30.12 in 3.0 mi Calm Calm - 0.00 in Snow Light Snow